Tracking 29892 objects as of 21-Nov-2024
HD Live streaming from Space Station
objects crossing your sky now

STARLINK-11091

Track STARLINK-11091 now!
10-day predictions


NORAD ID: 61207
Int'l Code: 2024-171H
Perigee: 366.4 km
Apogee: 367.4 km
Inclination: 53.2 °
Period: 91.7 minutes
Semi major axis: 6737 km
RCS: Unknown
Launch date: September 20, 2024
Source: United States (US)
Launch site: AIR FORCE WESTERN TEST RANGE (AFWTR)
Your satellite tracking list
Your tracking list is empty




NASA's NSSDC Master Catalog

Two Line Element Set (TLE):
1 61207U 24171H   24325.50368827  .00001444  00000-0  16773-4 0  9997
2 61207  53.1564 353.7427 0000767  90.9680 269.1426 15.69706321 10770
Source of the keplerian elements: AFSPC